Regional Weather Roundup
Issued by NWS Upton, NY

Current Version | Previous Version | Graphics & Text | Print | Product List | Glossary Off
Versions: 1 2 3 4 5 6 7 8 9 10 11 12 13 14 15 16 17 18 19 20 21 22 23 24 25 26 27 28 29 30 31 32 33 34 35 36 37 38 39 40 41 42 43 44 45 46 47 48 49 50

000
ASUS41 KOKX 280305
RWROKX
REGIONAL WEATHER ROUNDUP
NATIONAL WEATHER SERVICE NEW YORK NY
1100 PM EDT SUN JUL 27 2014

NOTE: "FAIR" INDICATES FEW OR NO CLOUDS BELOW 12,000 FEET WITH NO
SIGNIFICANT WEATHER AND/OR OBSTRUCTIONS TO VISIBILITY.

NYZ071-072-176-178-NJZ106-104-280400-
NEW YORK CITY METRO AREA


CITY           SKY/WX    TMP DP  RH WIND       PRES   REMARKS
CENTRAL PARK   CLOUDY    80  70  71 CALM      29.71S
LAGUARDIA APRT CLOUDY    82  70  66 SW10      29.67F
KENNEDY INTL   CLOUDY    79  71  76 SW7       29.69S
NEWARK/LIBERTY CLOUDY    81  72  74 S9        29.67F
BRNX BOT. GARD   N/A     81  70  69 SE3       29.70F
TETERBORO      CLOUDY    83  70  64 S6        29.66S
$$

NYZ177-179-078>081-280400-
LONG ISLAND NEW YORK

CITY           SKY/WX    TMP DP  RH WIND       PRES   REMARKS
FARMINGDALE    CLOUDY    75  71  87 S7        29.69F
ISLIP          CLOUDY    76  70  82 S8        29.68F
SHIRLEY        CLOUDY    73  70  90 S8        29.71S
WESTHAMPTON    MOCLDY    70  67  90 S3        29.73R
MONTAUK POINT    N/A     72  69  90 S7        29.71F
$$

NYZ052-065-067-280400-
HUDSON VALLEY

CITY           SKY/WX    TMP DP  RH WIND       PRES   REMARKS
WHITE PLAINS   CLOUDY    74  70  87 CALM      29.68F
NEWBURGH       PTCLDY    77  66  69 SW7       29.69S
MONTGOMERY     CLOUDY    70  67  90 CALM      29.67S
POUGHKEEPSIE   CLOUDY    73  68  84 CALM      29.65F
ALBANY         CLOUDY    69  66  90 CALM      29.67F
$$

NJZ001-105-106-008-010-013-015-019>022-104-280400-
NEW JERSEY

CITY           SKY/WX    TMP DP  RH WIND       PRES   REMARKS
NEWARK/LIBERTY CLOUDY    81  72  74 S9        29.67F
TETERBORO      CLOUDY    83  70  64 S6        29.66S
CALDWELL       CLOUDY    79  68  69 CALM      29.68R
MORRISTOWN     RAIN      75  70  83 CALM      29.68S
SOMERVILLE     TSTM      74  71  91 CALM      29.65F FOG
LINDEN         DRIZZLE   82  72  72 CALM      29.69F
SUSSEX         CLOUDY    74  68  81 CALM      29.68S
ANDOVER          N/A     72  69  90 CALM      29.69S
TRENTON        TSTM      78  71  79 VRB7      29.68F
MILLVILLE      MOCLDY    77  71  82 VRB3      29.69F
ATLANTIC CITY  MOCLDY    77  70  79 SW6       29.70F
WRIGHTSTOWN    CLOUDY    76  71  85 SW5       29.67F
TOMS RIVER     CLOUDY    75  72  88 S5        29.70S
BELMAR         CLOUDY    79  70  73 SW8       29.70S
$$

PAZ047>061-062-071-280400-
EASTERN PENNSYLVANIA

CITY           SKY/WX    TMP DP  RH WIND       PRES   REMARKS
PHILADELPHIA   CLOUDY    79  70  74 S7        29.66F
ALLENTOWN      TSTM      72  66  83 S15G21    29.70S
SCRANTON       LGT RAIN  73  65  75 SW12      29.68F
$$

CTZ002-004>006-009-010-012-RIZ004-006-007-MAZ004-011-015-280400-
SOUTHERN NEW ENGLAND
 IN CT

CITY           SKY/WX    TMP DP  RH WIND       PRES   REMARKS
BRADLEY INTL   MOCLDY    67  63  87 NE3       29.67F
HARTFORD       CLOUDY    71  63  75 CALM      29.67F
DANBURY        CLOUDY    74  68  81 VRB3      29.70F
WTRBRY/OXFORD  CLOUDY    72  66  83 S3        29.72F
BRIDGEPORT     CLOUDY    75  70  84 S5        29.68F
MERIDEN        CLOUDY    72  69  90 CALM      29.69F
NEW HAVEN      CLOUDY    75  69  81 CALM      29.69F
CHESTER        FAIR      72  70  94 SW6       29.71F
GROTON         MOCLDY    70  68  93 S3        29.69S
WILLIMANTIC    CLOUDY    65  63  93 CALM      29.70S

 IN RI

CITY           SKY/WX    TMP DP  RH WIND       PRES   REMARKS
PROVIDENCE     MOCLDY    71  69  93 CALM      29.71S
BLOCK ISLAND   PTCLDY    70  66  88 S13       29.71S
WESTERLY       MOCLDY    71  68  90 S3        29.70F

 IN MA

CITY           SKY/WX    TMP DP  RH WIND       PRES   REMARKS
BOSTON         PTCLDY    71  68  90 S7        29.69S
WORCESTER      MOCLDY    66  63  90 W8        29.72S
WESTFIELD      MOCLDY    64  62  93 CALM      29.68F FOG
PROVINCETOWN   PTCLDY    70  68  94 S10       29.71F
NANTUCKET      CLOUDY    68  67  96 S9        29.74F FOG
$$

ANZ330-335-338-340-345-350-353-355-280400-
COASTAL MARINE OBSERVATIONS


STATION/POSITION TIME  SKY/WX   TEMP    WIND        PRES    VSBY  WAVE
                                AIR SEA DIR/SP/G                  HT/PER
                 (UTC)          (F)     (DEG/KT/KT) (MB)    (MI)  (FT/S)
NY HARB ENTRANCE NOT AVBL
4S FIRE IS       NOT AVBL
23SW MTP         0200            72 71              1005.8          4/ 6
HUDSON CANYON    0300            75 74  210/ 14/ 16 1006.7          4/ 6
EXECUTION ROCKS  0300            78 72  200/  8/ 10   N/A
WESTERN LI SOUND 0300            76     170/  6/  6   N/A           0
CENTRAL LI SOUND 0200            74 72  200/  8/ 10   N/A           1/ 3
EASTERN LI SOUND 0200            71 68  220/  6/ 10   N/A
ROBBINS REEF     0300            80     200/  9/ 12   N/A
$$


>>>>>>>>>>>>>>>>>>>>>>>>>>>> KEY <<<<<<<<<<<<<<<<<<<<<<<<<<<
>                                                          <
>     SKY/WX - SKY CONDITION/PRESENT WEATHER               <
>     TMP    - TEMPERATURE IN FAHRENHEIT                   <
>     DP     - DEWPOINT IN FAHRENHEIT                      <
>     RH     - RELATIVE HUMIDITY IN PERCENT                <
>     WIND   - DIRECTION AND SPEED IN MPH                  <
>     PRES   - MEAN SEA LEVEL PRESSURE IN INCHES OF HG     <
>     WCI    - WIND CHILL INDEX                            <
>     VSB    - VISIBILITY IN MILES                         <
>     HX     - HEAT INDEX                                  <
>     TC     - TEMPERATURE IN CELSIUS                      <
>     VRB    - VARIABLE WIND DIRECTION                     <
>                                                          <
>>>>>>>>>>>>>>>>>>>>>>>>>>>> KEY <<<<<<<<<<<<<<<<<<<<<<<<<<<





USA.gov is the U.S. government's official web portal to all federal, state and local government web resources and services.